Weather History for Guatemala Aeropuertola Aurora, Guatemala

Change the Weather History Date:

Monday, July 22, 2013

  Actual Average Record
Temperature  
Mean Temperature 68 °F -  
Max Temperature 77 °F 75 °F - ()
Min Temperature 59 °F 60 °F - ()
Cooling Degree Days 3    
Growing Degree Days 18 (Base 50)    
Moisture  
Dew Point 59 °F    
Average Humidity 75    
Maximum Humidity 94    
Minimum Humidity 43    
Precipitation  
Precipitation 0.00 in - - ()
Sea Level Pressure  
Sea Level Pressure 30.26 in    
Wind  
Wind Speed 12 mph ()    
Max Wind Speed 21 mph    
Max Gust Speed 30 mph    
Visibility 5.8 miles    
Events Rain    
T = Trace of Precipitation, MM = Missing Value Source: Averaged Metar Reports

Daily Weather History Graph

Daily Weather History Graph

Search for Another Location

Airport:

Trip Planner

Search our weather history database for the weather conditions in past years. The results will help you decide how hot, cold, wet, or windy it might be!

Date:

Astronomy

Jul. 22, 2013 Rise Set
Actual Time 5:42 AM CST 6:34 PM CST
Civil Twilight 5:19 AM CST 6:57 PM CST
Nautical Twilight 4:52 AM CST 7:24 PM CST
Astronomical Twilight 4:25 AM CST 7:51 PM CST
Moon 6:35 PM CST (7/22) 5:29 AM CST (7/22)
Length of Visible Light 13h 37m
Length of Day
12h 51m
Full, 100% of the Moon is Illuminated
Jul 22
Full
Jul 22
Full
Jul 29
Last Quarter
Aug 6
New
Aug 14
First Quarter

Hourly Weather History & Observations

Time (CST) Temp. Dew Point Humidity Pressure Visibility Wind Dir Wind Speed Gust Speed Precip Events Conditions
12:00 AM 64.4 °F 60.8 °F 88% 30.33 in 6.2 mi North 11.5 mph - N/A   Mostly Cloudy
1:00 AM 64.4 °F 60.8 °F 88% 30.30 in 6.2 mi North 16.1 mph - N/A   Mostly Cloudy
2:00 AM 64.4 °F 60.8 °F 88% 30.30 in 6.2 mi North 11.5 mph - N/A   Mostly Cloudy
3:00 AM 62.6 °F 60.8 °F 94% 30.27 in 6.2 mi North 13.8 mph - N/A   Scattered Clouds
4:00 AM 64.4 °F 60.8 °F 88% 30.27 in 6.2 mi North 9.2 mph - N/A   Mostly Cloudy
5:00 AM 62.6 °F 60.8 °F 94% 30.27 in 6.2 mi North 11.5 mph - N/A   Scattered Clouds
6:00 AM 62 °F 60 °F 92% 29.97 in 25 mi North 11.5 mph - -   Overcast
6:00 AM 62.6 °F 60.8 °F 94% 30.30 in 6.2 mi North 11.5 mph - N/A   Mostly Cloudy
7:00 AM 62.6 °F 60.8 °F 94% 30.30 in 6.2 mi North 9.2 mph - N/A   Mostly Cloudy
8:00 AM 64.4 °F 62.6 °F 94% 30.30 in 6.2 mi North 20.7 mph - N/A   Mostly Cloudy
9:00 AM 69.8 °F 59.0 °F 68% 30.33 in 6.2 mi NNE 18.4 mph 29.9 mph N/A   Mostly Cloudy
10:00 AM 69.8 °F 57.2 °F 64% 30.33 in 6.2 mi North 18.4 mph - N/A   Mostly Cloudy
11:00 AM 73.4 °F 59.0 °F 61% 30.30 in 6.2 mi NNE 18.4 mph - N/A   Mostly Cloudy
12:00 PM 73 °F 55 °F 43% 29.99 in 25 mi NNE 13.8 mph - -   Overcast
12:00 PM 73.4 °F 55.4 °F 53% 30.30 in 6.2 mi NNE 13.8 mph - N/A   Mostly Cloudy
1:00 PM 75.2 °F 53.6 °F 47% 30.30 in 6.2 mi North 13.8 mph - N/A   Mostly Cloudy
2:00 PM 77.0 °F 57.2 °F 50% 30.27 in 6.2 mi NNE 16.1 mph - N/A   Scattered Clouds
3:00 PM 75.2 °F 57.2 °F 53% 30.24 in 6.2 mi NNE 13.8 mph - N/A   Scattered Clouds
4:00 PM 75.2 °F 57.2 °F 53% 30.21 in 6.2 mi NNE 16.1 mph - N/A   Scattered Clouds
5:00 PM 73.4 °F 57.2 °F 57% 30.24 in 6.2 mi NNE 13.8 mph - N/A   Scattered Clouds
6:00 PM 71.6 °F 59.0 °F 64% 30.24 in 5.0 mi NE 11.5 mph - N/A   Mostly Cloudy
6:05 PM - - N/A% - 4.3 mi South 6.9 mph - N/A Rain Light Rain
6:30 PM - - N/A% - 3.1 mi South 9.2 mph - N/A   Mostly Cloudy
7:00 PM 66.2 °F 64.4 °F 94% 30.27 in 2.5 mi South 4.6 mph - N/A   Mostly Cloudy
7:25 PM - - N/A% - 5.0 mi North 6.9 mph - N/A   Mostly Cloudy
8:00 PM 68.0 °F 59.0 °F 73% 30.27 in 6.2 mi North 11.5 mph - N/A   Mostly Cloudy
9:00 PM 68.0 °F 60.8 °F 78% 30.30 in 6.2 mi North 11.5 mph - N/A   Mostly Cloudy
10:00 PM 66.2 °F 62.6 °F 88% 30.33 in 6.2 mi North 13.8 mph - N/A   Mostly Cloudy
11:00 PM 66.2 °F 62.6 °F 88% 30.33 in 6.2 mi North 16.1 mph - N/A   Mostly Cloudy